Location: Young's Pond
(41.2695°N, 72.7766°W)
Time: 23:39:12
(UTC-04:00)

Spot 4 - Visible Passes

Search period start: 17 September 2014 00:00
Search period end: 27 September 2014 00:00
Orbit: 706 x 725 km, 98.5° (Epoch: 03 September)

Date Brightness Start Highest point End Pass type
(mag) Time Alt. Az. Time Alt. Az. Time Alt. Az.
17 Sep 6.1 20:47:18 11° NE 20:47:18 11° NE 20:47:55 10° NE visible
17 Sep 6.1 22:26:29 21° NNW 22:26:29 21° NNW 22:28:03 10° NNW visible
18 Sep 5.8 21:34:52 20° NNE 21:34:52 20° NNE 21:36:33 10° N visible
18 Sep 6.9 23:14:02 11° NW 23:14:02 11° NW 23:14:17 10° NW visible
19 Sep 6.2 22:22:25 19° NNW 22:22:25 19° NNW 22:23:47 10° NNW visible
20 Sep 5.9 21:30:49 17° NNE 21:30:49 17° NNE 21:32:12 10° N visible
20 Sep 6.9 23:09:59 11° NW 23:09:59 11° NW 23:10:08 10° NW visible
21 Sep 6.3 22:18:22 18° NNW 22:18:22 18° NNW 22:19:31 10° NNW visible
22 Sep 6.1 21:26:45 15° NNE 21:26:45 15° NNE 21:27:50 10° N visible
22 Sep 7.0 23:05:56 10° NW 23:05:56 10° NW 23:05:58 10° NNW visible
23 Sep 6.4 22:14:19 16° N 22:14:19 16° N 22:15:14 10° N visible
24 Sep 6.2 21:22:42 14° NNE 21:22:42 14° NNE 21:23:27 10° NNE visible
25 Sep 6.4 22:10:15 14° N 22:10:15 14° N 22:10:57 10° N visible
26 Sep 6.3 21:18:38 12° NNE 21:18:38 12° NNE 21:19:03 10° NNE visible
